Погода в Мбабане

Эсватини     26°19′35″S   31°08′38″E
темп.,
°C
ветер,
м/с
пор.,
м/с
влажн.,
%
обл.,
%
осадки,
мм/ч
давл.,
гПа
погр.,
м
15 августа, пн
пн1523:00+11зюз34270 0.0 101695
02:00+9зюз37320 0.0 1017200
05:00+6зюз224216 0.0 101839
08:00+10зюз363197 0.0 1021560
11:00+16юв222412 0.0 10211282
14:00+18вюв44222 0.0 10181893
17:00+15в46320 0.0 1019459
20:00+9св238213 0.0 102463
16 августа, вт
вт1623:00+9св236484 0.0 1026470
02:00+7ссв117316 0.0 102546
05:00+5сз11840 0.0 102511
08:00+9ссз22700 0.0 1025307
11:00+18ссз35270 0.0 10211207
14:00+24с35144 0.0 10151395
17:00+19всв23271 0.0 101598
20:00+14сз33347 0.0 101938
17 августа, ср
ср1723:00+12зсз33385 0.0 101851
02:00+11зсз34334 0.0 101755
05:00+11зсз333732 0.0 101744
08:00+15зсз2332100 0.0 1017117
11:00+25сз471547 0.0 10131101
14:00+31сз3777 0.0 10082667
17:00+26зсз24141 0.0 100880
20:00+19зсз49204 0.0 1011185
18 августа, чт
чт1823:00+18зсз4112286 0.0 1011235
02:00+17зсз472573 0.0 1010111
05:00+16зсз452667 0.0 100977
08:00+21зсз31223100 0.0 1009437
11:00+32сз715853 0.0 10052976
14:00+32зсз815828 0.0 10023321
17:00+27з6121092 0.0 10041143
20:00+15ю2262100 0.0 101132
19 августа, пт
пт1923:00+12юв23835 0.0 101388
02:00+10ю12825 0.0 1015101
05:00+9з12450 0.0 101646
08:00+12юз37330 0.0 1018648
11:00+17ю693347 0.0 10202236
14:00+17ююв57339 0.0 10192031
17:00+16вюв45374 0.0 1020560
20:00+10в11570 0.0 102512